Tracking 21076 objects as of 8-Aug-2020
HD Live streaming from Space Station
objects crossing your sky now

MICROMAS 2A

Track MICROMAS 2A now!
10-day predictions
MICROMAS 2A is classified as:


NORAD ID: 43131
Int'l Code: 2018-004W
Perigee: 491.2 km
Apogee: 502.1 km
Inclination: 97.4 °
Period: 94.4 minutes
Semi major axis: 6867 km
RCS: Unknown
Launch date: January 12, 2018
Source: United States (US)
Launch site: SRIHARIKOTA (SRI)

MICROMAS 2A is a 3U cubesat from MIT Lincoln Lab, designed for microwave radiometry of tropical weather.
aabbcc
Your satellite tracking list
Your tracking list is empty




NASA's NSSDC Master Catalog

Two Line Element Set (TLE):
1 43131U 18004W   20220.75057973  .00001620  00000-0  66970-4 0  9995
2 43131  97.4462 292.5162 0007946 222.3909 137.6716 15.25430816142919
Source of the keplerian elements: AFSPC